When you browse on this site, cookies collect data to enhance your experience and personalize the content and advertising you see.
Visit our Privacy Policy to learn more. By continuing to use the site, you agree to this use of cookies and data.
  • In Lithuania
  • List of Countries
  • For 7 days
  • Water Temperature
  • Weather Map
  • Weather Widgets
  • user-avatar
    Login

    Hourly Weather Hobart

    Today, 15 September, Sunday

    Time Temperature Precipitation Wind Pressure Humidity
    00:00 +9°C° 0 mm 3 mps 743 mmHg 74%
    01:00 +9°C° 0 mm 3 mps 743 mmHg 83%
    02:00 +9°C° 0 mm 3 mps 743 mmHg 84%
    03:00 +10°C° 0 mm 2 mps 742 mmHg 85%
    04:00 +10°C° 0 mm 2 mps 742 mmHg 88%
    05:00 +10°C° 0 mm 2 mps 742 mmHg 85%
    06:00 +9°C° 0 mm 2 mps 743 mmHg 83%
    07:00 +9°C° 0 mm 2 mps 743 mmHg 81%
    08:00 +10°C° 0 mm 2 mps 743 mmHg 70%
    09:00 +12°C° 0 mm 2 mps 743 mmHg 59%
    10:00 +13°C° 0 mm 4 mps 744 mmHg 49%
    11:00 +13°C° 0 mm 3 mps 743 mmHg 47%
    12:00 +14°C° 0 mm 3 mps 743 mmHg 44%
    13:00 +15°C° 0 mm 2 mps 743 mmHg 42%
    14:00 +15°C° 0 mm 2 mps 742 mmHg 43%
    15:00 +15°C° 0 mm 2 mps 742 mmHg 44%
    16:00 +14°C° 0 mm 2 mps 741 mmHg 46%
    17:00 +12°C° 0 mm 2 mps 741 mmHg 53%
    18:00 +9°C° 0 mm 2 mps 742 mmHg 61%
    19:00 +8°C° 0 mm 2 mps 742 mmHg 68%
    20:00 +7°C° 0 mm 2 mps 741 mmHg 70%
    21:00 +7°C° 0 mm 3 mps 741 mmHg 72%
    22:00 +7°C° 0 mm 3 mps 741 mmHg 74%
    23:00 +6°C° 0 mm 4 mps 740 mmHg 76%

    Tomorrow, 16 September, Monday

    Time Temperature Precipitation Wind Pressure Humidity
    00:00 +5°C° 0 mm 4 mps 740 mmHg 78%
    01:00 +5°C° 0 mm 5 mps 739 mmHg 80%
    02:00 +3°C° 0 mm 6 mps 740 mmHg 79%
    03:00 +3°C° 0 mm 6 mps 740 mmHg 78%
    04:00 +2°C° 0 mm 7 mps 741 mmHg 77%
    05:00 +2°C° 0.3 mm 6 mps 742 mmHg 81%
    06:00 +2°C° 0.3 mm 5 mps 743 mmHg 84%
    07:00 +1°C° 0.3 mm 4 mps 744 mmHg 88%
    08:00 +2°C° 0 mm 5 mps 745 mmHg 78%
    09:00 +4°C° 0 mm 6 mps 746 mmHg 68%
    10:00 +5°C° 0 mm 7 mps 747 mmHg 57%
    11:00 +5°C° 0 mm 6 mps 748 mmHg 53%
    12:00 +7°C° 0 mm 6 mps 748 mmHg 49%
    13:00 +7°C° 0 mm 6 mps 749 mmHg 45%
    14:00 +7°C° 0 mm 5 mps 749 mmHg 47%
    15:00 +6°C° 0 mm 5 mps 750 mmHg 48%
    16:00 +6°C° 0 mm 5 mps 750 mmHg 49%
    17:00 +5°C° 0 mm 4 mps 751 mmHg 58%
    18:00 +3°C° 0 mm 4 mps 752 mmHg 67%
    19:00 +2°C° 0 mm 3 mps 752 mmHg 75%
    20:00 +1°C° 0 mm 3 mps 753 mmHg 79%
    21:00 0°C° 0 mm 3 mps 754 mmHg 82%
    22:00 0°C° 0 mm 3 mps 754 mmHg 86%
    23:00 0°C° 0 mm 3 mps 754 mmHg 87%

    Day after tomorrow, 17 September, Tuesday

    Time Temperature Precipitation Wind Pressure Humidity
    00:00 -1°C° 0 mm 3 mps 754 mmHg 88%
    01:00 -1°C° 0 mm 3 mps 755 mmHg 89%
    02:00 -1°C° 0 mm 2 mps 755 mmHg 90%
    03:00 -1°C° 0 mm 2 mps 754 mmHg 90%
    04:00 -1°C° 0 mm 2 mps 754 mmHg 91%
    05:00 -1°C° 0 mm 2 mps 755 mmHg 89%
    06:00 0°C° 0 mm 3 mps 755 mmHg 87%
    07:00 0°C° 0 mm 3 mps 755 mmHg 85%
    08:00 +3°C° 0 mm 3 mps 755 mmHg 73%
    09:00 +5°C° 0 mm 3 mps 755 mmHg 61%
    10:00 +9°C° 0 mm 3 mps 756 mmHg 49%
    11:00 +10°C° 0 mm 3 mps 755 mmHg 46%
    12:00 +12°C° 0 mm 2 mps 755 mmHg 42%
    13:00 +13°C° 0 mm 2 mps 755 mmHg 39%
    14:00 +13°C° 0 mm 2 mps 754 mmHg 39%
    15:00 +13°C° 0 mm 2 mps 754 mmHg 39%
    16:00 +13°C° 0 mm 2 mps 754 mmHg 39%
    17:00 +10°C° 0 mm 2 mps 754 mmHg 49%
    18:00 +7°C° 0 mm 2 mps 755 mmHg 58%
    19:00 +5°C° 0 mm 2 mps 755 mmHg 68%
    20:00 +5°C° 0 mm 2 mps 756 mmHg 72%
    21:00 +4°C° 0 mm 2 mps 756 mmHg 77%
    22:00 +3°C° 0 mm 2 mps 756 mmHg 81%
    23:00 +3°C° 0 mm 2 mps 756 mmHg 84%

    18 September, Wednesday

    Time Temperature Precipitation Wind Pressure Humidity
    00:00 +2°C° 0 mm 2 mps 756 mmHg 87%
    01:00 +2°C° 0 mm 2 mps 756 mmHg 89%
    02:00 +1°C° 0 mm 2 mps 756 mmHg 90%
    03:00 +1°C° 0 mm 2 mps 756 mmHg 91%
    04:00 +1°C° 0 mm 2 mps 755 mmHg 91%
    05:00 +1°C° 0 mm 2 mps 756 mmHg 89%
    06:00 +1°C° 0 mm 2 mps 756 mmHg 86%
    07:00 +2°C° 0 mm 2 mps 756 mmHg 84%
    08:00 +5°C° 0 mm 2 mps 756 mmHg 71%
    09:00 +8°C° 0 mm 2 mps 756 mmHg 58%
    10:00 +12°C° 0 mm 2 mps 756 mmHg 45%
    11:00 +13°C° 0 mm 2 mps 755 mmHg 41%
    12:00 +15°C° 0 mm 2 mps 755 mmHg 37%
    13:00 +16°C° 0 mm 2 mps 754 mmHg 32%
    14:00 +16°C° 0 mm 1 mps 754 mmHg 34%
    15:00 +16°C° 0 mm 1 mps 754 mmHg 37%
    16:00 +16°C° 0 mm 1 mps 753 mmHg 39%
    17:00 +13°C° 0 mm 1 mps 754 mmHg 50%
    18:00 +11°C° 0 mm 1 mps 754 mmHg 61%
    19:00 +8°C° 0 mm 1 mps 754 mmHg 72%
    20:00 +7°C° 0 mm 1 mps 754 mmHg 73%
    21:00 +5°C° 0 mm 2 mps 754 mmHg 74%
    22:00 +5°C° 0 mm 2 mps 754 mmHg 75%
    23:00 +3°C° 0 mm 3 mps 753 mmHg 75%

    19 September, Thursday

    Time Temperature Precipitation Wind Pressure Humidity
    00:00 +3°C° 0 mm 3 mps 753 mmHg 75%
    01:00 +2°C° 0 mm 3 mps 753 mmHg 76%
    02:00 +2°C° 0 mm 3 mps 752 mmHg 75%
    03:00 +2°C° 0 mm 3 mps 752 mmHg 74%
    04:00 +2°C° 0 mm 3 mps 751 mmHg 73%
    05:00 +2°C° 0 mm 3 mps 751 mmHg 73%
    06:00 +3°C° 0 mm 3 mps 751 mmHg 73%
    07:00 +3°C° 0 mm 3 mps 751 mmHg 72%
    08:00 +7°C° 0 mm 4 mps 750 mmHg 63%
    09:00 +11°C° 0 mm 4 mps 750 mmHg 54%
    10:00 +15°C° 0 mm 4 mps 749 mmHg 45%
    11:00 +16°C° 0 mm 5 mps 749 mmHg 40%
    12:00 +19°C° 0 mm 5 mps 748 mmHg 36%
    13:00 +20°C° 0 mm 6 mps 747 mmHg 32%
    14:00 +20°C° 0 mm 6 mps 747 mmHg 34%
    15:00 +19°C° 0 mm 5 mps 746 mmHg 37%
    16:00 +19°C° 0 mm 5 mps 746 mmHg 40%
    17:00 +16°C° 0 mm 5 mps 746 mmHg 46%
    18:00 +14°C° 0 mm 4 mps 746 mmHg 52%
    19:00 +12°C° 0 mm 4 mps 746 mmHg 58%
    20:00 +11°C° 0 mm 4 mps 746 mmHg 58%
    21:00 +11°C° 0 mm 4 mps 746 mmHg 58%
    22:00 +11°C° 0 mm 3 mps 746 mmHg 58%
    23:00 +11°C° 0 mm 3 mps 746 mmHg 59%

    20 September, Friday

    Time Temperature Precipitation Wind Pressure Humidity
    00:00 +11°C° 0 mm 3 mps 746 mmHg 60%
    01:00 +10°C° 0 mm 3 mps 745 mmHg 62%
    02:00 +10°C° 0 mm 3 mps 745 mmHg 65%
    03:00 +10°C° 0 mm 3 mps 744 mmHg 68%
    04:00 +10°C° 0 mm 3 mps 744 mmHg 72%
    05:00 +10°C° 0 mm 3 mps 744 mmHg 74%
    06:00 +11°C° 0 mm 3 mps 744 mmHg 76%
    07:00 +11°C° 0 mm 3 mps 744 mmHg 79%
    08:00 +13°C° 0 mm 4 mps 744 mmHg 69%
    09:00 +16°C° 0 mm 5 mps 743 mmHg 60%
    10:00 +19°C° 0 mm 6 mps 743 mmHg 50%
    11:00 +19°C° 0 mm 5 mps 743 mmHg 51%
    12:00 +19°C° 0 mm 4 mps 743 mmHg 52%
    13:00 +19°C° 0 mm 3 mps 743 mmHg 52%
    14:00 +16°C° 0.8 mm 3 mps 743 mmHg 66%
    15:00 +12°C° 0.8 mm 3 mps 743 mmHg 80%
    16:00 +9°C° 0.8 mm 3 mps 743 mmHg 95%
    17:00 +8°C° 1.2 mm 2 mps 744 mmHg 94%
    18:00 +8°C° 1.2 mm 2 mps 745 mmHg 94%
    19:00 +7°C° 1.2 mm 2 mps 745 mmHg 94%
    20:00 +8°C° 0.1 mm 1 mps 746 mmHg 94%
    21:00 +7°C° 0.1 mm 1 mps 746 mmHg 94%
    22:00 +7°C° 0.1 mm 1 mps 746 mmHg 94%
    23:00 +6°C° 0 mm 1 mps 746 mmHg 94%
    Show more